CAPE
1912 1986 2080 2157 2183 2234 2315 2525 2510 2547 2504 2444 2452 2388 2177 2315 2211 2129 1909 1866 1638 1482 1467 1527 1474 1575 1785 1619 1639 1722 1469 1439 1482 1645 1606 1587 1548 1576 1588 1518 1333 1202 1083 800 693 658 696 807 801 854 1030 1077 682 332 548 775 622 437 455 422 486 378
1860 1958 2012 2019 2095 2142 2258 2323 2336 2273 2143 2264 2334 2226 2063 1997 2034 1849 1673 1247 1251 1309 1246 1145 1251 1681 1396 1696 1615 1585 1513 1479 1487 1518 1549 1614 1566 1608 1462 1524 1531 1396 1130 889 794 507 291 261 473 598 860 901 248 334 634 732 617 450 414 445 428 498
1800 1821 1844 1889 2004 2146 2111 2151 2188 2113 2015 2161 2348 2278 1948 2010 1765 1596 1215 1161 1249 1217 1155 1126 1441 1367 1512 1539 1597 1541 1542 1566 1555 1527 1568 1452 1434 1463 1602 1501 1572 1494 1246 1035 764 473 100 1 0 334 388 263 242 287 615 675 594 458 473 505 339 773
1804 1750 1707 1770 1909 1918 1928 2032 1996 1964 1984 2118 2216 1801 1956 1691 1488 1370 1299 1173 1143 1218 1297 1274 1973 1732 1733 1667 1563 1631 1684 1689 1579 1601 1574 1533 1090 1317 1550 1499 1502 1486 1450 1088 685 454 301 1 0 0 209 232 199 233 533 642 554 441 512 522 364 1062
1958 1813 1679 1694 1717 1710 1733 1805 1860 1879 1939 2073 1955 1722 1734 1530 1401 1342 1458 1264 1120 1109 1258 1332 1238 1277 1292 1264 1402 1576 1591 1439 1446 1434 1393 1301 1212 1223 1363 1325 1399 1365 1282 1095 798 521 312 74 0 0 0 0 0 431 530 599 642 542 494 581 541 1187
2088 2002 1815 1681 1620 1676 1664 1638 1716 1793 1857 1884 1630 1635 1523 1432 1429 1395 1513 1448 1274 1149 1148 1306 1150 944 1037 1158 1266 1270 1445 1431 1454 1391 1233 1261 1326 1266 1317 1331 1246 1233 1111 1061 809 488 6 12 0 0 0 0 0 178 463 590 709 626 481 572 758 1206
2159 2194 2031 1785 1599 1890 1566 1606 1657 1755 1825 1766 1570 1500 1413 1312 1241 1263 1372 1463 1340 1184 1118 1213 1183 1061 990 1074 1108 1214 1250 1296 1343 1321 1240 1152 1151 1146 1284 1261 1188 1004 887 852 616 6 0 0 0 0 2 0 12 0 360 581 626 660 608 599 934 1192
2269 2289 2249 2037 1884 1963 1699 1610 1650 2253 1891 1751 1617 1478 1416 1310 1191 1114 1242 1300 1280 1150 1118 1141 1207 1184 1062 1053 1082 1191 1143 1070 1136 1196 1249 1173 1002 1036 1150 953 867 866 746 587 131 66 14 3 217 172 14 2 0 0 19 296 594 574 584 543 857 1201
2395 2351 2376 2267 2215 2124 1998 1858 1810 1944 1781 2240 1720 1477 1356 1362 1268 1075 1022 1169 1126 1136 1215 1250 1208 1137 984 1130 1083 1005 1064 1030 1022 995 1156 1120 1016 920 1076 993 822 672 613 576 478 367 26 2 0 0 6 24 5 0 53 532 516 545 544 590 767 1014
2532 2485 2466 2416 2366 2260 2118 1987 1961 1878 1706 2079 1738 1528 1326 1267 1260 1016 1064 1076 1047 1158 1182 1236 1245 1157 1120 1117 1038 865 708 670 787 829 776 922 899 714 749 876 847 620 469 340 346 385 30 0 0 0 0 6 1 17 339 465 493 530 556 541 642 701
2584 2532 2451 2390 2374 2304 2097 2030 2041 2032 2041 1910 1767 1665 1619 1571 1480 1335 1159 1179 1067 1152 1138 1012 1002 1025 1215 1175 1044 917 772 705 608 581 695 598 625 514 340 421 463 338 355 362 111 0 0 0 0 0 2 0 0 2 443 451 486 544 603 603 654 633
2555 2467 2438 2393 2364 2241 2170 2169 2129 2113 2074 1904 1822 1716 1661 1529 1478 1347 1327 1254 1131 1116 1047 954 1117 1192 1206 1169 1119 1101 956 841 771 674 933 1023 888 600 410 344 317 334 352 125 88 0 0 0 0 0 0 0 0 0 308 475 504 578 609 621 624 712
2516 2457 2425 2348 2287 2220 2206 2162 2162 2083 1996 1930 1861 1803 1663 1513 1425 1314 1182 1147 1160 1090 1045 898 1008 1095 1156 1080 1078 1069 938 771 765 689 816 948 1118 1017 845 683 533 542 437 373 357 214 0 0 0 0 0 0 181 9 1 405 505 554 525 557 634 746
2536 2317 2315 2287 2296 2221 2152 2053 2007 1945 1813 1846 1864 1594 1493 1456 1301 1253 1216 1156 1109 1080 1096 1046 1017 1062 1134 1128 1051 937 871 785 703 694 974 1120 1146 896 1035 1166 1138 794 404 378 371 276 0 0 0 16 58 146 68 27 2 375 516 492 468 515 564 714
2316 2106 2097 2164 2170 1978 1917 1738 1626 1492 1184 1253 1297 1212 1121 1192 1278 1329 1278 1130 1081 1064 1116 1072 1074 1068 1134 1165 1039 912 834 722 797 838 904 1186 1295 1380 1202 975 633 391 352 360 342 297 0 0 5 57 30 56 75 40 22 26 32 512 580 591 575 592
1927 1785 1615 1829 1900 1653 1591 1410 1140 904 863 997 948 879 897 1108 1220 1179 1063 1013 1064 1151 1159 1131 1079 1084 1118 1186 1132 1006 908 909 888 1039 1047 1060 1271 1296 1055 712 499 454 393 360 146 65 0 0 111 193 333 230 33 212 93 4 46 54 537 672 653 611
1142 800 703 1040 1345 1309 1212 1042 874 796 733 707 662 752 820 955 955 919 866 926 943 1028 1048 952 934 983 1113 1212 1130 1029 958 1120 981 1057 1118 1192 1259 1229 1017 734 650 578 529 429 182 172 178 102 144 14 45 336 335 0 254 197 148 28 10 33 407 460
562 471 581 822 1044 984 997 1002 884 739 675 548 571 638 662 740 815 851 895 861 814 773 733 783 810 857 1031 1107 1034 960 1003 995 917 996 1125 1171 1248 1216 1075 663 660 582 517 330 177 88 159 171 319 184 9 113 290 260 286 289 220 161 0 18 98 184
471 423 550 729 693 554 368 268 211 584 693 703 631 566 582 634 711 797 743 625 649 762 695 690 728 869 944 932 864 930 969 950 958 1138 1080 833 884 1150 1109 755 589 636 557 369 276 253 289 394 165 115 258 140 3 176 378 295 308 244 211 309 229 426
379 405 384 377 381 336 0 0 278 441 661 724 650 627 614 652 719 694 556 573 656 648 502 578 708 717 645 826 853 905 815 880 924 1057 1118 997 800 1047 1027 904 678 675 588 453 311 455 421 470 503 232 363 253 25 339 523 404 333 297 243 184 318 270
300 230 237 227 328 308 0 313 351 426 507 566 660 705 713 765 766 764 670 684 694 650 490 450 519 564 658 719 627 676 669 708 916 1022 940 849 957 954 957 855 724 667 566 529 490 477 472 488 522 450 521 185 210 926 1060 735 459 344 268 213 114 505
146 0 0 0 0 0 0 288 342 361 364 392 72 52 0 0 0 0 358 777 785 780 594 481 464 515 526 681 744 702 792 887 976 873 726 750 730 968 1002 918 785 677 546 501 559 561 612 590 595 503 598 494 366 657 1036 870 635 404 297 214 140 511
366 20 0 0 0 0 0 0 63 211 224 0 0 0 0 0 0 0 0 0 0 410 470 498 588 591 584 928 891 940 918 874 665 645 769 737 764 867 973 982 904 802 714 641 627 640 636 659 640 639 579 389 268 87 118 538 546 388 296 286 195 393
573 452 6 286 43 0 0 0 0 0 0 0 0 0 0 0 0 0 0 0 0 0 0 0 0 0 39 1040 1051 978 849 586 531 548 629 807 719 734 769 618 635 724 678 724 627 612 603 627 560 562 519 101 262 450 15 39 487 626 976 940 490 599
496 264 262 212 0 0 0 0 0 0 0 0 0 0 0 0 0 32 0 0 0 0 0 0 0 0 0 0 711 863 701 522 551 574 811 824 873 779 666 709 673 672 692 529 521 563 631 594 514 490 418 367 105 3 155 704 614 710 697 963 929 1043
505 518 495 380 122 0 0 0 0 0 0 0 0 0 0 0 0 0 0 0 0 0 0 0 0 0 0 0 0 541 602 605 671 693 792 644 595 506 110 607 737 795 810 651 654 549 536 526 522 494 435 443 24 33 618 483 133 186 500 545 817 1116
638 713 520 479 85 0 0 0 0 0 0 0 0 0 0 0 0 0 0 0 0 0 0 0 0 0 0 0 0 0 0 0 0 473 510 528 287 136 563 544 432 523 646 762 644 635 495 517 529 518 498 398 453 479 632 356 131 303 302 484 527 695
823 816 422 265 228 0 0 0 0 0 0 0 0 0 0 0 0 0 0 0 0 0 0 0 0 0 0 0 0 0 0 0 0 0 0 0 0 0 276 483 462 207 373 532 516 538 543 596 409 464 516 416 393 502 676 393 266 39 0 84 265 237
928 846 382 256 203 0 0 0 0 0 0 0 0 0 0 0 0 0 0 0 0 0 0 0 0 0 0 0 0 0 0 0 0 0 0 0 0 0 0 126 103 0 0 92 376 350 386 482 467 455 439 454 339 577 463 164 9 11 1 3 2 124
958 878 502 372 240 0 0 0 0 0 0 0 0 0 0 0 0 0 0 0 0 0 0 0 0 0 0 0 0 0 0 0 0 0 0 0 0 0 0 0 0 0 0 0 27 168 62 135 198 191 262 352 312 469 312 2 7 12 10 4 4 3
932 839 586 424 310 212 0 0 0 0 1 0 0 0 0 0 0 0 0 0 0 0 0 0 0 0 0 0 0 0 0 0 0 0 0 0 0 0 0 0 0 0 0 0 0 0 0 0 0 20 48 234 415 308 0 0 0 0 0 0 0 0
881 810 673 458 301 236 0 0 0 2 10 4 0 0 0 0 0 0 0 0 0 0 0 0 0 0 0 0 0 0 0 0 0 0 0 0 0 0 0 0 0 0 0 0 0 0 0 0 0 0 0 0 0 0 0 0 0 0 0 0 0 0
1394 731 691 503 377 267 0 0 0 0 4 1 0 0 0 0 0 0 0 0 0 0 0 0 0 0 0 0 0 0 0 0 0 0 0 0 0 0 0 0 0 0 0 0 0 0 0 0 0 0 0 0 0 0 0 0 0 0 0 0 0 0
1679 1056 618 519 471 184 0 0 0 0 0 0 0 0 0 0 0 0 0 0 0 0 0 0 0 0 0 0 0 0 0 0 0 0 0 0 0 0 0 0 0 0 0 0 0 0 0 0 0 0 0 0 0 0 0 0 0 0 0 0 0 0
1088 1227 880 598 523 0 0 0 0 0 1 0 0 0 0 0 0 0 0 0 0 0 0 0 0 0 0 0 0 0 0 0 0 0 0 0 0 0 0 0 0 0 0 0 0 0 0 0 0 0 0 0 0 0 0 0 0 0 0 0 0 0
667 643 947 714 496 70 0 0 1 0 0 0 0 0 0 0 0 0 0 0 0 0 0 0 0 0 0 0 0 0 0 0 0 0 0 0 0 0 0 0 0 0 0 0 0 0 0 0 0 0 0 0 0 0 0 0 0 0 0 0 0 0
514 599 692 697 650 438 0 0 3 0 0 0 0 0 0 0 0 0 0 0 0 0 0 0 0 0 0 0 0 0 0 0 0 0 0 0 0 0 0 0 0 0 0 0 0 0 0 0 0 0 0 0 0 0 0 0 0 0 0 0 0 0
Wind_Speed
20 19 17 16 15 16 19 24 24 26 27 28 27 28 28 30 30 29 29 29 28 26 25 25 26 24 26 22 23 23 23 24 23 22 22 21 20 19 19 19 19 18 19 19 19 20 22 23 24 24 24 24 28 21 21 25 24 23 23 25 26 25
17 14 12 12 13 15 18 21 20 21 22 24 26 28 27 26 28 26 30 27 25 25 25 25 24 25 22 21 22 22 22 23 23 23 22 21 20 18 18 19 19 18 18 19 19 21 22 23 24 23 23 24 27 20 20 24 24 24 23 24 26 25
12 10 11 12 14 17 19 19 21 21 22 24 25 27 26 28 27 27 26 25 25 25 24 24 23 23 21 22 21 23 22 22 23 24 23 22 20 19 19 19 18 17 17 17 19 20 21 nan nan 22 23 23 25 20 20 23 25 25 24 23 25 24
8 9 12 14 17 19 20 20 21 22 23 23 25 26 27 28 27 27 27 26 26 25 24 22 22 23 23 22 21 22 22 22 23 24 24 22 20 19 19 18 16 16 17 18 18 19 20 nan nan nan 20 21 23 21 21 23 23 25 26 23 24 23
9 11 14 16 18 19 19 20 21 21 23 24 26 26 27 27 27 27 27 27 27 25 23 22 21 20 22 22 22 21 22 22 22 23 24 23 21 19 19 17 15 17 17 16 16 17 19 nan nan nan nan nan nan 22 21 24 24 26 26 26 24 22
13 13 14 15 16 16 18 19 20 20 23 24 25 26 27 26 28 27 27 27 27 26 23 22 21 20 21 23 22 22 22 22 23 23 23 23 20 20 18 16 15 15 15 15 15 16 nan nan nan nan nan nan nan 22 19 24 26 27 27 28 26 23
14 13 13 14 14 15 16 17 19 20 22 23 24 26 25 26 26 26 26 26 27 25 23 22 20 19 22 22 22 22 22 21 22 23 22 22 19 18 17 15 14 13 14 14 14 nan nan nan nan nan nan nan nan nan 17 19 23 26 27 29 28 25
12 11 10 12 13 13 15 17 18 19 20 20 22 24 24 23 24 25 24 24 24 24 23 22 18 19 21 21 21 21 20 20 21 20 21 21 20 17 16 15 14 13 13 13 14 nan nan nan 19 20 nan nan nan nan nan 18 20 23 25 27 29 28
9 9 9 11 12 13 15 16 17 18 18 17 20 21 22 21 21 22 22 22 22 22 21 20 18 20 22 20 20 19 19 18 18 18 20 20 19 18 15 14 13 13 13 14 16 17 nan nan nan nan nan nan nan nan nan 20 20 21 23 25 28 30
7 8 10 11 11 13 13 15 15 16 15 15 16 20 20 19 18 20 20 19 18 18 18 18 17 19 20 19 18 17 18 17 18 17 18 18 18 18 15 15 14 13 14 14 14 13 nan nan nan nan nan nan nan nan 21 22 22 21 22 24 26 31
7 9 10 12 12 13 13 14 14 14 15 14 14 18 19 18 17 17 17 17 16 15 15 15 17 18 17 17 17 17 16 16 17 16 16 16 18 16 15 15 14 14 14 15 14 nan nan nan nan nan nan nan nan nan 22 22 22 22 22 22 24 30
10 11 13 13 13 14 13 14 15 15 15 14 16 17 17 17 17 16 15 14 13 14 14 14 15 15 16 16 15 15 15 15 15 16 16 17 16 16 14 15 15 15 15 17 nan nan nan nan nan nan nan nan nan nan 21 21 22 21 21 22 23 27
12 13 14 16 15 15 15 14 16 16 15 15 15 16 16 17 17 16 14 13 13 13 13 14 14 14 14 13 14 15 14 13 14 15 16 17 17 15 14 14 15 16 18 20 18 18 nan nan nan nan nan nan 22 nan nan 21 20 20 21 22 22 24
13 14 15 16 17 16 15 15 15 15 15 15 15 16 16 16 17 16 15 14 12 12 13 12 12 14 13 13 13 14 14 14 14 15 17 17 16 14 13 15 15 18 18 19 18 18 nan nan nan nan nan 22 nan nan nan 22 22 21 22 23 23 23
11 13 15 16 18 18 17 16 16 16 16 15 15 16 17 16 17 16 15 13 12 12 12 11 11 12 12 12 13 13 15 14 13 15 16 16 15 15 15 15 18 18 19 20 19 19 nan nan nan nan nan nan nan nan nan nan nan 22 25 26 25 24
13 13 14 17 18 18 17 17 17 17 17 16 16 16 16 16 17 15 13 12 11 11 11 10 11 10 10 10 10 12 13 13 12 13 15 16 15 14 14 17 16 18 19 20 20 nan nan nan 20 22 20 19 nan 21 nan nan nan nan 25 26 25 24
17 15 16 17 18 17 18 18 18 19 17 17 17 16 15 15 16 14 11 11 11 11 11 11 9 8 9 8 10 12 13 13 13 12 13 14 15 13 14 16 17 16 18 18 20 21 19 18 19 nan nan 20 20 nan 21 21 19 nan nan nan 23 23
17 16 18 19 18 18 18 19 20 20 18 18 17 16 14 13 14 12 10 10 11 11 11 11 10 8 8 9 10 10 13 14 13 14 13 14 14 13 15 16 16 16 16 18 19 nan 17 16 16 19 nan 21 20 20 19 20 20 20 nan nan nan 23
20 17 18 20 19 18 18 18 21 22 20 18 16 14 13 11 10 9 8 8 9 9 9 10 10 9 9 10 10 10 13 14 14 15 14 16 11 13 15 15 15 15 17 18 18 16 15 16 16 16 19 19 nan 19 18 18 20 22 21 19 21 23
19 17 17 19 20 20 nan nan 22 21 21 18 16 15 12 11 11 10 8 8 8 8 8 9 9 9 10 11 11 11 12 13 14 16 16 15 10 11 14 16 15 15 16 16 17 17 17 16 15 17 16 15 nan 18 18 18 18 20 20 20 20 20
17 17 19 20 20 21 nan 21 21 21 21 18 18 16 15 13 13 12 11 9 7 6 6 9 10 10 11 11 12 11 13 14 15 15 15 15 14 14 15 16 16 16 15 15 15 16 15 16 16 15 15 16 16 17 17 17 17 17 18 19 18 19
19 nan nan nan nan nan nan 19 22 22 22 21 nan nan nan nan nan nan 14 11 9 7 6 6 8 10 11 12 14 14 14 14 15 15 15 15 15 16 17 18 17 18 15 15 15 15 14 15 16 16 16 15 15 13 14 16 16 16 17 19 20 19
20 nan nan nan nan nan nan nan nan 20 24 nan nan nan nan nan nan nan nan nan nan 11 9 9 7 9 10 12 14 15 15 15 16 16 17 17 17 17 17 18 18 18 17 16 16 15 15 16 15 16 16 18 15 nan 13 15 15 16 18 19 20 19
20 19 nan 18 nan nan nan nan nan nan nan nan nan nan nan nan nan nan nan nan nan nan nan nan nan nan nan 12 13 15 16 16 16 16 18 19 18 18 19 19 18 17 18 18 17 16 16 16 17 16 16 16 16 16 nan nan 15 15 17 19 19 19
20 21 22 22 nan nan nan nan nan nan nan nan nan nan nan nan nan nan nan nan nan nan nan nan nan nan nan nan 15 14 14 15 17 17 18 18 18 18 18 17 18 18 17 18 19 18 17 16 15 15 16 18 17 nan 16 16 17 16 17 18 18 18
20 22 26 26 25 nan nan nan nan nan nan nan nan nan nan nan nan nan nan nan nan nan nan nan nan nan nan nan nan 16 16 17 16 16 17 18 18 19 20 19 18 19 19 19 20 20 18 17 16 15 16 15 nan nan 18 16 19 16 15 16 15 16
21 22 26 27 nan nan nan nan nan nan nan nan nan nan nan nan nan nan nan nan nan nan nan nan nan nan nan nan nan nan nan nan nan 16 17 19 19 19 20 20 20 21 20 21 22 21 20 19 20 17 17 16 17 18 18 19 19 18 18 16 17 16
21 23 24 26 27 nan nan nan nan nan nan nan nan nan nan nan nan nan nan nan nan nan nan nan nan nan nan nan nan nan nan nan nan nan nan nan nan nan 22 20 21 21 22 22 22 23 22 20 19 18 19 17 17 19 20 22 21 nan nan nan 16 16
22 24 23 25 28 nan nan nan nan nan nan nan nan nan nan nan nan nan nan nan nan nan nan nan nan nan nan nan nan nan nan nan nan nan nan nan nan nan nan 22 22 nan nan nan 23 23 23 19 19 19 22 19 20 21 22 23 nan nan nan nan nan 20
24 25 26 26 28 nan nan nan nan nan nan nan nan nan nan nan nan nan nan nan nan nan nan nan nan nan nan nan nan nan nan nan nan nan nan nan nan nan nan nan nan nan nan nan nan 25 nan 22 22 22 20 22 21 22 23 nan nan nan nan nan nan nan
26 27 28 27 28 29 nan nan nan nan nan nan nan nan nan nan nan nan nan nan nan nan nan nan nan nan nan nan nan nan nan nan nan nan nan nan nan nan nan nan nan nan nan nan nan nan nan nan nan nan nan 24 23 21 nan nan nan nan nan nan nan nan
27 28 28 27 27 31 nan nan nan nan nan nan nan nan nan nan nan nan nan nan nan nan nan nan nan nan nan nan nan nan nan nan nan nan nan nan nan nan nan nan nan nan nan nan nan nan nan nan nan nan nan nan nan nan nan nan nan nan nan nan nan nan
27 26 28 27 26 31 nan nan nan nan nan nan nan nan nan nan nan nan nan nan nan nan nan nan nan nan nan nan nan nan nan nan nan nan nan nan nan nan nan nan nan nan nan nan nan nan nan nan nan nan nan nan nan nan nan nan nan nan nan nan nan nan
32 30 29 25 25 32 nan nan nan nan nan nan nan nan nan nan nan nan nan nan nan nan nan nan nan nan nan nan nan nan nan nan nan nan nan nan nan nan nan nan nan nan nan nan nan nan nan nan nan nan nan nan nan nan nan nan nan nan nan nan nan nan
37 36 29 26 25 nan nan nan nan nan nan nan nan nan nan nan nan nan nan nan nan nan nan nan nan nan nan nan nan nan nan nan nan nan nan nan nan nan nan nan nan nan nan nan nan nan nan nan nan nan nan nan nan nan nan nan nan nan nan nan nan nan
31 29 26 26 28 nan nan nan nan nan nan nan nan nan nan nan nan nan nan nan nan nan nan nan nan nan nan nan nan nan nan nan nan nan nan nan nan nan nan nan nan nan nan nan nan nan nan nan nan nan nan nan nan nan nan nan nan nan nan nan nan nan
28 25 26 28 27 26 nan nan nan nan nan nan nan nan nan nan nan nan nan nan nan nan nan nan nan nan nan nan nan nan nan nan nan nan nan nan nan nan nan nan nan nan nan nan nan nan nan nan nan nan nan nan nan nan nan nan nan nan nan nan nan nan
Wind_Direction
272 273 270 271 271 274 285 290 287 289 289 289 286 289 288 288 287 287 285 285 281 279 280 279 279 278 282 275 278 282 284 283 281 278 278 276 273 271 269 266 262 260 258 252 242 232 227 226 226 228 229 233 244 240 241 236 233 233 235 233 232 236
278 280 276 270 268 270 276 279 274 276 278 282 285 286 281 278 282 276 283 280 278 279 280 281 282 284 280 278 276 282 281 279 278 278 274 271 273 268 268 265 262 258 255 249 245 238 230 226 222 222 224 228 242 233 233 239 238 232 233 234 233 235
284 282 276 268 266 267 268 269 271 273 277 282 283 280 274 276 272 275 275 276 276 276 280 280 280 282 281 281 276 285 279 276 275 275 273 272 272 270 262 264 264 258 251 249 243 242 233 nan nan 220 223 231 243 232 230 239 242 234 233 232 231 239
273 273 265 262 262 264 266 267 270 271 272 271 269 270 270 273 275 276 278 277 277 277 277 280 287 291 287 277 274 280 279 274 272 273 274 266 268 269 269 264 263 262 255 246 245 241 236 nan nan nan 227 230 237 235 228 237 244 238 234 233 232 244
250 254 258 261 264 264 263 264 265 268 269 267 268 269 272 273 274 273 276 277 277 276 275 272 271 270 271 274 267 262 260 259 259 261 265 259 262 261 261 259 254 253 255 251 244 238 237 nan nan nan nan nan nan 244 235 236 240 238 236 233 235 249
236 244 252 257 261 266 269 267 268 270 270 270 272 272 274 276 276 275 277 278 276 276 274 271 271 275 273 268 265 261 260 260 259 260 262 264 262 260 261 262 260 253 249 247 240 235 nan nan nan nan nan nan nan 249 245 243 238 236 235 234 236 251
231 240 252 260 262 267 272 273 273 274 275 277 276 278 279 279 279 280 281 281 279 278 275 272 275 275 271 268 267 265 262 260 260 262 262 265 264 264 269 266 261 255 250 246 238 nan nan nan nan nan nan nan nan nan 252 251 243 241 238 234 234 250
242 256 266 278 284 282 279 280 281 282 281 282 281 280 279 282 283 285 285 284 282 282 279 277 277 275 271 267 269 269 266 260 260 262 262 266 268 269 269 263 263 257 253 247 241 nan nan nan 238 243 nan nan nan nan nan 256 249 246 244 239 230 240
255 279 282 293 299 294 289 288 286 284 287 288 286 285 284 287 291 291 290 290 286 286 281 281 283 277 272 271 270 269 266 263 259 261 262 266 269 270 270 269 267 261 254 247 240 234 nan nan nan nan nan nan nan nan nan 256 254 250 247 244 234 233
292 298 302 303 301 297 296 294 291 292 295 292 291 285 286 291 297 299 298 295 291 288 288 287 285 275 276 272 270 269 264 261 261 259 261 266 267 270 274 267 262 259 259 256 252 244 nan nan nan nan nan nan nan nan 257 257 260 257 252 249 237 229
302 308 308 309 301 297 292 292 293 295 293 293 288 285 287 292 296 299 302 299 294 290 288 284 280 278 275 270 267 268 266 260 260 261 263 266 264 266 267 268 266 263 261 259 255 nan nan nan nan nan nan nan nan nan 259 259 261 263 261 258 245 232
312 313 315 314 300 293 292 292 291 286 287 289 287 287 289 293 296 298 299 298 295 289 287 284 281 277 273 268 264 265 261 258 259 261 263 262 262 261 262 261 261 262 261 260 nan nan nan nan nan nan nan nan nan nan 264 259 261 263 262 261 254 238
313 313 316 312 304 296 292 288 285 284 287 290 291 290 291 294 294 297 300 300 296 288 283 282 274 273 269 264 260 255 251 251 258 260 259 258 258 258 257 258 257 257 255 260 257 252 nan nan nan nan nan nan 249 nan nan 268 261 256 258 260 259 247
309 314 312 309 298 295 289 282 285 287 291 293 297 296 296 294 296 298 300 299 298 294 295 294 286 271 264 262 256 252 245 243 249 256 256 255 257 257 259 260 260 263 260 256 252 250 nan nan nan nan nan 247 nan nan nan 258 262 253 245 246 253 252
306 306 311 311 306 300 290 293 290 291 291 290 291 293 294 293 294 298 298 301 298 297 296 297 293 286 267 260 260 255 241 237 243 253 258 253 252 249 256 262 267 265 255 251 247 246 nan nan nan nan nan nan nan nan nan nan nan 259 250 247 248 245
302 303 310 312 308 303 302 297 293 290 287 285 285 284 288 289 289 292 297 300 298 295 296 294 292 284 280 269 261 251 246 244 249 256 258 253 248 246 251 266 261 269 256 249 251 nan nan nan 254 257 256 256 nan 254 nan nan nan nan 249 247 246 248
309 304 301 302 302 302 299 295 292 285 288 284 282 281 283 283 287 291 300 301 297 295 295 291 288 283 282 274 256 247 242 244 244 252 254 253 249 244 249 261 255 256 262 258 255 252 248 248 251 nan nan 256 253 nan 253 255 250 nan nan nan 248 250
304 300 299 299 299 298 295 293 289 287 283 278 276 279 283 283 293 300 304 305 297 296 298 295 289 285 276 262 252 245 238 244 245 253 254 247 248 248 250 261 262 254 256 259 254 nan 253 251 250 254 nan 257 256 253 256 258 253 245 nan nan nan 250
301 296 295 295 291 284 280 278 278 282 277 271 268 268 274 279 281 282 290 289 285 286 285 281 279 282 273 262 254 241 242 245 251 258 258 249 237 247 254 257 266 259 250 251 256 255 256 258 254 254 254 254 nan 258 259 258 258 254 246 238 238 241
297 294 293 292 289 283 nan nan 279 277 277 276 277 279 279 288 288 288 284 286 294 298 288 282 278 277 267 260 252 245 245 246 251 258 265 271 264 255 261 260 261 261 253 248 248 252 253 253 252 252 252 254 nan 259 261 260 257 256 252 241 233 239
295 293 294 296 291 290 nan 284 281 284 289 293 295 294 291 294 290 288 288 287 286 286 288 289 293 283 273 275 266 255 247 246 249 254 258 265 268 260 257 259 258 257 259 252 246 244 246 256 254 249 246 248 249 256 253 255 257 252 248 250 243 245
289 nan nan nan nan nan nan 296 295 297 297 299 nan nan nan nan nan nan 281 285 290 287 283 277 274 277 276 273 268 260 254 254 255 258 258 258 261 261 261 260 261 253 252 255 248 247 245 251 245 253 249 245 247 248 252 250 253 251 249 253 254 252
290 nan nan nan nan nan nan nan nan 299 300 nan nan nan nan nan nan nan nan nan nan 268 269 267 267 264 263 261 263 262 260 257 254 255 255 256 253 253 253 254 253 258 251 245 247 247 247 250 254 254 256 254 252 nan 242 245 251 249 248 253 258 262
293 291 nan 284 nan nan nan nan nan nan nan nan nan nan nan nan nan nan nan nan nan nan nan nan nan nan nan 267 263 258 255 254 255 251 251 250 248 250 248 249 249 252 255 251 248 245 243 247 254 254 254 257 256 256 nan nan 253 253 249 250 256 261
293 288 285 282 nan nan nan nan nan nan nan nan nan nan nan nan nan nan nan nan nan nan nan nan nan nan nan nan 259 260 256 252 250 250 252 253 251 252 254 256 257 259 263 260 260 253 246 250 255 253 261 255 253 nan 260 260 256 256 245 249 248 256
283 282 284 285 287 nan nan nan nan nan nan nan nan nan nan nan nan nan nan nan nan nan nan nan nan nan nan nan nan 257 256 253 253 254 256 255 255 256 255 256 258 262 260 259 267 265 260 257 259 251 250 251 nan nan 255 258 260 256 246 255 252 256
289 288 287 286 nan nan nan nan nan nan nan nan nan nan nan nan nan nan nan nan nan nan nan nan nan nan nan nan nan nan nan nan nan 255 253 252 250 251 251 254 258 260 263 263 265 266 271 263 260 256 251 242 242 246 251 252 253 253 251 245 252 252
292 295 294 289 283 nan nan nan nan nan nan nan nan nan nan nan nan nan nan nan nan nan nan nan nan nan nan nan nan nan nan nan nan nan nan nan nan nan 250 248 252 256 257 257 262 269 266 268 264 259 256 246 238 238 243 245 248 nan nan nan 247 241
296 300 301 297 287 nan nan nan nan nan nan nan nan nan nan nan nan nan nan nan nan nan nan nan nan nan nan nan nan nan nan nan nan nan nan nan nan nan nan 252 249 nan nan nan 256 262 266 264 262 261 262 256 247 244 241 240 nan nan nan nan nan 246
300 302 304 303 296 nan nan nan nan nan nan nan nan nan nan nan nan nan nan nan nan nan nan nan nan nan nan nan nan nan nan nan nan nan nan nan nan nan nan nan nan nan nan nan nan 258 nan 258 256 254 256 263 254 249 245 nan nan nan nan nan nan nan
301 298 299 304 303 293 nan nan nan nan nan nan nan nan nan nan nan nan nan nan nan nan nan nan nan nan nan nan nan nan nan nan nan nan nan nan nan nan nan nan nan nan nan nan nan nan nan nan nan nan nan 254 256 255 nan nan nan nan nan nan nan nan
297 299 298 298 297 294 nan nan nan nan nan nan nan nan nan nan nan nan nan nan nan nan nan nan nan nan nan nan nan nan nan nan nan nan nan nan nan nan nan nan nan nan nan nan nan nan nan nan nan nan nan nan nan nan nan nan nan nan nan nan nan nan
299 293 294 289 287 288 nan nan nan nan nan nan nan nan nan nan nan nan nan nan nan nan nan nan nan nan nan nan nan nan nan nan nan nan nan nan nan nan nan nan nan nan nan nan nan nan nan nan nan nan nan nan nan nan nan nan nan nan nan nan nan nan
285 278 273 268 270 276 nan nan nan nan nan nan nan nan nan nan nan nan nan nan nan nan nan nan nan nan nan nan nan nan nan nan nan nan nan nan nan nan nan nan nan nan nan nan nan nan nan nan nan nan nan nan nan nan nan nan nan nan nan nan nan nan
259 258 261 264 269 nan nan nan nan nan nan nan nan nan nan nan nan nan nan nan nan nan nan nan nan nan nan nan nan nan nan nan nan nan nan nan nan nan nan nan nan nan nan nan nan nan nan nan nan nan nan nan nan nan nan nan nan nan nan nan nan nan
262 274 294 301 297 nan nan nan nan nan nan nan nan nan nan nan nan nan nan nan nan nan nan nan nan nan nan nan nan nan nan nan nan nan nan nan nan nan nan nan nan nan nan nan nan nan nan nan nan nan nan nan nan nan nan nan nan nan nan nan nan nan
293 292 301 302 295 297 nan nan nan nan nan nan nan nan nan nan nan nan nan nan nan nan nan nan nan nan nan nan nan nan nan nan nan nan nan nan nan nan nan nan nan nan nan nan nan nan nan nan nan nan nan nan nan nan nan nan nan nan nan nan nan nan